Home   Weather   Rastatt   Past weeks

Flag for Germany Past Weather in Rastatt, Baden-Württemberg, Germany — Yesterday and Last 2 Weeks

Now
50 °F

Passing clouds.


Feels Like: 46 °F
Forecast: 39 / 55 °F
Wind: 9 mph from Southwest

Location: Karlsruhe - Baden Wurttemberg

Current Time: Feb 26, 2017 at 10:54:44 pm

Latest Report: Feb 26, 2017 at 10:20 pm


Visibility: N/A

Pressure: 29.95 "Hg

Humidity: 54%

Dew Point: 34 °F

Location of RastattLocation

Past Weather in Rastatt — Graph

°F

Rastatt Temperature Yesterday

Maximum temperature yesterday: 50 °F (at 3:20 pm)
Minimum temperature yesterday: 27 °F (at 5:50 am)
Average temperature yesterday: 38 °F

High & Low Weather Summary for the Past Weeks

 TemperatureHumidityPressure
High66 °F (Feb 23, 2:20 pm)100% (Feb 12, 12:50 am)30.60 "Hg (Feb 12, 12:50 am)
Low23 °F (Feb 14, 6:50 am)22% (Feb 23, 2:50 pm)29.53 "Hg (Feb 23, 2:50 pm)
Average43 °F81%30.19 "Hg
* Reported Feb 11 9:20 pm — Feb 26 9:20 pm, Rastatt, Weather by CustomWeather, © 2017

Note: Actual official high and low records may vary slightly from our data, if they occured in-between our weather recording intervals... More about our weather records

Advertising

Rastatt Weather History for the Previous 24 Hours

Scroll right to see more
 ConditionsComfort  
Time TempWeatherWind HumidityBarometerVisibility
9:20 pm
Sun, Feb 26
50 °FPassing clouds.10 mph54%29.98 "HgN/A
8:50 pm50 °FPassing clouds.12 mph54%29.98 "HgN/A
8:20 pm48 °FClear.10 mph58%29.98 "Hg10 mi
7:50 pm43 °FClear.8 mph66%29.98 "Hg10 mi
7:20 pm46 °FClear.7 mph62%29.98 "Hg10 mi
6:50 pm46 °FClear.7 mph57%29.98 "Hg10 mi
6:20 pm50 °FClear.8 mph54%29.98 "Hg10 mi
5:50 pm52 °FSunny.10 mph47%29.98 "Hg10 mi
5:20 pm54 °FSunny.12 mph44%29.95 "Hg10 mi
4:50 pm55 °FSunny.13 mph41%29.95 "Hg10 mi
4:20 pm55 °FSunny.15 mph41%29.98 "Hg10 mi
3:50 pm55 °FSunny.15 mph38%29.98 "Hg10 mi
3:20 pm55 °FSunny.16 mph41%29.98 "Hg10 mi
2:50 pm54 °FSunny.17 mph44%30.01 "Hg10 mi
2:20 pm55 °FSunny.16 mph41%30.01 "Hg10 mi
1:50 pm54 °FSunny.15 mph47%30.01 "Hg10 mi
1:20 pm54 °FSunny.15 mph51%30.01 "Hg10 mi
12:50 pm52 °FSunny.16 mph54%30.04 "Hg10 mi
12:20 pm50 °FSunny.15 mph58%30.04 "Hg10 mi
11:50 am48 °FSunny.10 mph62%30.07 "Hg10 mi
11:20 am48 °FPassing clouds.9 mph62%30.04 "HgN/A
10:50 am46 °FPassing clouds.9 mph66%30.04 "HgN/A
10:20 am46 °FSunny.12 mph66%30.04 "Hg10 mi
9:50 am45 °FPassing clouds.9 mph71%30.07 "HgN/A
9:20 am43 °FSunny.10 mph76%30.04 "Hg10 mi
8:50 am41 °FSunny.7 mph81%30.04 "Hg10 mi
8:20 am39 °FSunny.7 mph81%30.04 "Hg10 mi
7:50 am37 °FSunny.8 mph87%30.04 "Hg10 mi
7:20 am37 °FSunny.7 mph87%30.04 "Hg10 mi
6:50 am36 °FClear.6 mph93%30.04 "Hg10 mi
6:20 am36 °FClear.7 mph93%30.04 "Hg10 mi
5:50 am37 °FClear.6 mph87%30.04 "Hg10 mi
5:20 am36 °FClear.3 mph93%30.04 "Hg10 mi
4:50 am36 °FClear.3 mph93%30.04 "Hg10 mi
10:50 pm
Sat, Feb 25
36 °FClear.2 mph93%30.09 "Hg10 mi
10:20 pm36 °FClear.2 mph93%30.09 "Hg10 mi
Weather by CustomWeather, © 2017

See weather overviewHow to use our weather pages